Presure
165 157 155 172 135 168 112 148 173 180 164 187 192 193 179 192 162 167 174 161 193 189 193 204 210 228 204 220 217 264 254 259 232 256 243 252 288 290 255 361 281 280 256 249 247
136 147 159 140 169 161 163 143 169 152 185 192 166 156 137 183 165 192 181 177 172 181 184 199 200 211 218 202 214 228 227 261 253 245 248 242 252 256 290 277 349 338 284 258 247
124 134 136 134 124 125 134 125 180 144 162 117 184 158 182 176 174 168 175 161 170 192 181 190 170 198 206 217 206 222 242 247 236 260 254 254 252 260 266 282 272 353 333 307 260
112 127 137 125 110 122 116 188 123 157 162 157 188 169 154 158 164 180 175 187 171 189 179 164 190 196 194 208 214 219 216 256 224 251 260 262 258 252 224 273 278 256 257 345 332
106 121 115 126 159 147 124 125 174 162 123 181 181 151 166 149 154 164 168 141 176 182 183 177 178 167 187 189 208 218 212 220 254 232 256 245 241 249 263 252 280 267 270 199 271
129 127 167 128 128 124 127 125 115 114 172 165 183 172 147 150 164 176 157 186 166 180 174 180 182 186 192 186 193 212 213 216 238 216 245 255 257 242 237 252 244 279 271 265 254
120 166 113 107 170 157 122 173 157 174 182 170 165 170 163 173 162 179 161 187 169 161 184 161 185 181 181 184 186 198 217 218 212 236 223 247 255 249 240 232 235 239 270 269 253
116 164 118 164 144 115 158 127 174 143 167 152 170 149 149 149 163 162 162 175 146 165 179 178 165 182 179 182 185 189 206 220 221 245 209 243 252 250 251 250 254 234 271 265 258
140 130 145 118 123 149 116 112 149 155 119 116 169 149 144 161 142 161 153 152 169 177 176 174 171 157 185 168 185 191 186 212 219 231 242 241 240 253 255 248 262 302 282 269 262
132 139 153 138 112 115 123 148 109 117 121 139 155 163 138 138 142 163 165 160 137 176 168 138 164 170 179 187 188 185 196 214 219 218 229 244 248 244 255 263 254 307 287 270 259
130 132 152 122 157 151 156 126 120 118 122 125 129 159 143 122 124 148 138 161 167 164 156 171 166 175 180 182 190 184 197 211 227 220 215 240 248 252 248 260 248 314 299 273 261
119 156 130 139 137 131 151 106 110 145 128 120 144 152 134 155 136 130 125 151 144 160 168 174 171 165 172 177 187 183 195 206 213 215 243 232 248 249 245 255 270 340 296 280 261
133 145 120 120 119 143 116 112 121 127 117 103 123 114 125 149 129 136 117 134 150 162 164 170 157 171 167 175 184 189 190 207 208 220 243 232 245 242 246 254 268 247 301 291 266
144 124 146 134 134 127 111 123 139 130 117 104 119 129 106 102 137 139 141 140 142 166 157 168 158 169 174 176 183 187 189 223 210 214 242 239 240 249 246 247 251 252 299 285 272
91 170 119 113 107 106 149 110 162 157 111 103 112 126 124 129 122 113 121 115 136 139 111 145 157 169 166 176 184 189 230 222 227 225 242 231 233 244 244 246 253 267 280 288 280
121 147 161 120 135 156 160 149 124 164 117 166 111 124 132 121 131 113 150 120 142 103 132 149 140 171 176 179 188 202 203 241 239 214 240 228 242 236 244 244 254 271 270 297 285
133 140 145 159 118 127 145 169 150 133 138 137 124 126 130 120 125 129 131 130 118 104 156 129 160 149 176 179 188 196 199 207 205 236 228 242 242 221 244 244 243 250 251 268 289
148 168 130 138 132 146 128 152 139 146 119 155 102 122 116 131 116 127 128 128 131 112 152 117 162 176 177 178 188 193 202 209 209 237 219 246 210 232 235 244 242 240 247 280 258
149 134 123 142 126 128 157 153 135 115 166 119 121 124 120 122 124 123 130 146 137 104 154 142 131 109 175 176 193 192 180 204 215 236 237 218 216 223 237 234 249 238 242 251 284
126 139 138 149 120 126 134 125 125 126 117 135 115 126 153 131 140 143 111 104 127 132 165 112 146 174 180 179 194 186 194 208 237 236 240 224 207 217 231 234 240 251 237 242 260
132 133 151 149 127 123 152 113 112 120 148 141 144 135 140 113 132 153 140 138 142 140 118 108 181 181 182 189 194 200 194 201 225 233 234 227 235 232 217 233 243 237 258 239 256
118 146 131 127 128 156 127 124 109 122 116 138 119 142 125 97 128 149 129 137 126 142 165 99 135 111 169 199 193 211 200 199 223 232 229 221 217 230 216 229 227 237 239 250 241
117 131 117 127 135 159 116 148 146 114 131 154 153 157 116 128 129 145 95 107 113 103 177 182 105 177 174 193 191 203 196 193 216 235 220 237 218 218 209 233 236 247 244 241 165
137 120 152 123 163 125 126 123 118 141 134 143 116 120 143 126 122 134 144 121 180 161 88 122 169 194 179 198 195 206 197 196 217 239 228 230 226 216 219 251 255 250 243 235 237
156 110 107 118 160 114 147 116 141 119 127 132 138 141 122 160 131 127 133 99 121 157 89 124 184 159 170 206 194 204 195 222 236 214 229 216 221 222 221 228 246 249 249 239 239
114 135 140 123 119 125 161 118 133 104 128 141 134 118 146 110 132 133 95 124 137 117 182 180 184 174 181 202 205 193 199 245 237 227 230 233 223 216 221 239 234 246 248 251 242
160 151 127 158 142 130 123 129 138 135 132 137 133 156 132 145 146 160 143 168 147 175 191 177 170 193 200 205 208 186 234 244 234 226 225 216 223 213 215 207 240 242 265 249 247
Wind_Speed
35 33 37 43 32 37 13 32 40 37 33 47 50 52 37 52 31 32 33 36 55 47 50 58 64 60 46 49 45 46 38 36 21 31 17 17 25 21 21 29 39 52 53 59 62
32 35 36 33 35 35 36 23 31 35 42 50 37 33 23 40 35 52 41 44 40 41 46 64 60 67 62 49 55 52 44 41 32 22 22 15 18 17 27 16 26 37 55 55 58
32 34 29 36 23 26 31 26 35 39 30 16 39 26 44 30 27 27 36 32 41 60 42 51 39 62 66 63 57 61 59 46 43 40 32 27 24 31 29 29 20 21 32 53 58
21 31 40 30 14 22 20 40 19 31 26 26 42 23 24 27 38 35 27 51 35 57 46 42 59 64 61 70 65 62 56 57 49 48 43 39 35 27 20 32 24 20 14 24 38
14 23 15 27 26 32 25 29 27 23 23 35 40 27 26 34 30 29 39 42 38 52 54 41 54 37 56 57 73 68 59 61 55 55 50 41 35 36 41 28 28 19 17 31 16
35 31 28 32 29 14 30 28 12 15 34 20 42 37 33 30 26 40 25 54 38 47 42 51 53 58 63 54 64 78 68 63 65 48 60 52 47 32 24 35 27 23 19 16 22
22 24 12 4 27 29 25 26 19 30 39 25 20 30 20 41 18 48 28 59 37 27 57 30 59 54 52 58 59 71 78 73 64 64 54 58 53 43 30 23 24 25 23 21 21
15 22 15 25 16 18 20 30 31 19 31 13 25 15 20 19 36 41 31 50 35 31 58 56 56 61 57 59 64 68 76 80 73 73 53 62 57 51 45 38 41 26 25 22 24
15 9 12 14 7 14 15 18 17 22 32 27 32 15 20 23 30 30 27 28 48 56 55 57 53 51 70 62 69 75 65 82 79 78 69 66 61 60 56 45 48 30 27 24 23
16 13 12 6 15 19 16 14 16 21 18 21 28 35 37 36 27 39 43 47 44 59 54 51 48 57 69 76 76 73 81 88 84 80 76 67 66 61 64 59 49 30 28 28 26
16 4 7 14 9 8 16 20 23 21 29 29 31 26 24 38 39 30 37 47 53 51 42 59 53 64 74 77 84 74 88 91 89 83 74 75 68 67 63 62 49 27 29 27 29
12 10 9 10 10 10 9 13 18 16 24 28 20 28 27 39 32 42 43 41 46 51 59 66 64 61 66 73 86 76 88 93 91 83 80 78 72 69 66 67 61 24 25 25 26
7 9 6 7 8 14 11 14 20 22 22 23 28 30 31 31 38 41 41 42 48 58 58 63 54 69 66 76 85 88 87 94 90 91 79 78 75 69 69 70 66 52 24 23 24
13 6 14 12 14 12 10 18 20 19 21 22 27 30 28 28 35 39 44 46 47 61 57 66 60 70 75 78 86 88 88 96 92 90 75 76 75 72 68 70 69 60 24 21 23
14 16 1 6 12 16 18 16 28 25 22 25 27 30 33 35 36 40 42 45 48 51 44 58 64 69 69 80 88 90 102 94 93 92 75 77 72 73 68 69 70 66 48 29 25
3 16 20 8 15 23 25 20 20 34 23 39 28 32 36 36 42 37 50 44 51 35 54 61 62 75 77 84 91 92 97 93 87 94 76 76 73 72 73 69 74 67 53 35 26
11 17 19 25 13 18 20 37 25 28 28 27 30 33 38 36 41 45 49 48 48 37 60 54 71 64 81 86 91 91 92 100 95 88 87 76 75 72 73 70 68 69 62 49 30
19 30 20 15 16 25 18 31 25 29 23 38 31 31 34 43 39 46 48 51 56 45 64 55 71 84 85 87 91 90 96 111 87 84 86 76 78 75 72 69 66 63 64 52 45
22 18 16 21 16 18 35 33 26 25 49 24 31 33 34 38 43 45 50 56 60 41 66 66 58 46 86 89 93 91 85 103 94 90 75 81 77 83 77 74 71 62 61 58 47
26 22 22 31 22 34 25 23 28 28 27 36 33 37 46 43 47 54 39 37 49 61 75 46 69 86 90 96 97 92 95 108 98 89 78 82 77 82 79 77 72 69 60 58 57
21 22 37 36 28 27 40 30 32 29 46 42 46 46 46 41 46 55 55 56 61 66 47 48 92 94 95 101 99 101 93 98 107 93 82 82 75 78 83 82 75 76 65 58 59
32 39 27 29 30 45 32 33 37 36 37 46 40 49 45 22 48 60 49 56 54 67 81 42 66 65 87 103 102 116 98 97 119 96 86 87 87 85 82 86 83 78 73 61 56
35 31 37 33 37 51 37 46 47 40 47 56 58 64 48 55 55 63 26 50 61 42 90 95 63 94 95 103 102 109 98 95 123 96 91 85 90 84 82 84 79 78 69 65 44
40 38 50 37 55 38 40 42 42 51 52 53 46 53 62 58 50 60 67 56 93 80 38 68 91 106 102 106 106 123 106 101 122 93 90 89 87 92 93 77 70 70 67 65 62
55 41 43 40 58 43 53 45 54 45 50 52 61 64 52 78 64 59 63 36 62 83 37 63 103 85 101 119 109 124 109 128 106 102 92 89 91 92 95 96 86 77 69 65 65
49 49 53 45 45 47 65 48 56 48 57 65 61 53 75 58 63 64 34 65 74 73 106 105 106 98 111 115 122 111 114 91 100 101 94 90 91 89 94 88 86 83 77 69 64
67 59 49 66 58 52 51 55 62 61 60 65 63 80 64 79 77 89 78 93 78 101 106 106 101 111 119 120 121 105 102 92 96 100 97 95 96 87 91 87 89 83 79 71 63
Wind_Direction
90 82 92 92 74 75 83 57 86 83 50 80 76 71 66 64 27 30 36 13 45 42 40 41 39 40 36 36 32 30 29 29 343 26 360 1 5 348 276 262 250 246 244 243 243
91 84 82 85 80 81 72 76 70 69 86 73 67 35 54 65 29 53 50 44 35 31 34 40 37 35 34 28 27 27 24 24 21 14 12 347 355 352 356 334 267 254 244 243 242
97 100 90 72 100 78 84 81 86 53 49 36 71 40 58 57 45 40 48 12 28 39 32 33 2 33 31 30 24 24 25 24 21 16 9 12 8 15 7 358 338 272 260 244 242
94 97 63 93 78 87 86 83 51 68 75 43 67 62 40 33 40 53 46 40 35 37 36 10 32 31 28 28 25 24 21 23 19 17 12 11 9 10 311 5 350 311 264 268 254
84 114 109 83 92 69 85 64 79 68 55 66 61 20 77 39 19 42 40 9 36 34 33 15 21 359 27 21 23 21 19 18 17 18 14 9 8 5 1 3 349 334 309 262 272
74 73 96 61 61 109 52 48 65 66 52 88 50 41 20 7 42 43 13 32 18 27 31 27 24 24 23 19 19 19 19 16 18 8 18 12 8 3 356 356 351 326 313 290 263
97 93 86 72 77 55 50 77 74 66 53 71 54 57 67 43 37 38 32 26 26 7 24 0 21 20 19 18 16 15 15 15 10 14 11 14 8 4 352 343 342 339 312 296 277
107 78 73 68 65 56 78 29 53 56 48 49 52 26 12 8 34 18 26 23 357 17 20 18 12 16 13 11 11 11 11 12 11 14 6 12 9 3 356 350 345 326 307 285 274
76 64 93 35 49 70 32 36 47 45 23 21 33 4 1 33 4 24 5 4 19 19 17 15 14 358 11 4 9 9 3 7 8 10 11 10 8 4 358 348 344 311 291 278 268
64 68 65 53 49 38 31 44 20 13 19 7 23 22 11 9 3 20 18 13 3 15 8 349 6 7 7 7 6 5 3 4 6 5 7 7 7 6 360 353 347 303 285 282 281
64 7 53 44 40 42 28 16 15 7 8 6 4 21 3 0 357 3 354 10 11 8 2 7 2 5 5 3 3 1 1 1 3 2 1 7 6 3 360 356 350 299 281 276 278
96 20 47 26 23 16 12 6 10 10 359 4 4 6 350 9 353 353 350 0 355 3 5 4 2 358 0 0 359 358 358 358 359 359 4 2 4 2 358 358 354 299 286 270 276
320 3 78 52 31 1 12 3 352 345 353 356 355 353 349 357 348 354 347 359 354 358 359 360 354 359 355 357 357 356 355 355 354 357 2 360 360 2 357 355 354 353 306 290 271
348 59 345 4 360 359 348 349 342 332 345 351 348 343 348 351 349 350 350 350 349 358 352 357 354 354 355 355 354 353 352 355 352 355 359 358 358 357 358 354 353 350 320 303 278
322 325 220 276 301 310 333 334 350 344 338 340 339 341 337 339 337 335 340 340 345 345 350 348 349 352 352 352 352 351 358 355 354 354 357 358 357 354 357 355 352 351 348 318 289
271 315 327 311 330 340 340 326 331 343 331 344 332 331 335 333 338 345 345 337 341 350 343 344 342 349 350 351 350 352 355 356 356 351 353 355 353 354 355 355 354 352 350 330 301
310 316 319 325 302 315 321 337 328 329 330 327 328 329 333 328 334 336 336 340 333 339 343 343 346 345 348 349 348 351 353 355 354 354 352 353 349 350 354 353 355 352 347 346 318
304 314 296 305 303 317 303 328 320 325 319 330 320 324 320 330 322 331 334 334 336 340 337 336 344 345 344 346 345 347 351 351 350 353 350 350 348 351 352 352 351 352 347 349 340
303 293 278 306 294 300 323 326 314 304 330 312 317 319 315 322 323 326 331 330 333 338 337 336 344 344 343 343 343 343 342 350 348 352 350 347 344 354 346 348 348 347 348 346 343
290 300 301 309 271 304 305 298 304 313 305 317 305 315 324 317 324 326 330 337 337 333 336 338 340 341 341 340 340 339 342 348 348 350 350 346 341 351 345 345 345 345 344 343 344
278 286 303 305 290 290 312 285 297 303 317 314 318 316 316 310 318 322 325 329 328 334 336 329 337 338 339 338 337 340 338 345 347 348 348 347 342 348 347 345 340 342 340 339 344
276 297 283 286 294 307 296 298 297 305 303 311 309 313 313 315 318 321 326 329 328 334 333 327 329 336 336 336 334 342 337 341 347 344 345 345 341 347 344 343 341 336 334 337 338
279 281 285 288 294 301 291 305 306 297 308 312 312 317 303 313 315 322 317 319 316 331 330 329 333 333 333 334 332 338 335 337 345 342 344 339 341 344 341 337 332 328 329 332 311
287 281 291 289 297 293 295 296 295 305 304 310 311 308 311 308 318 323 322 315 325 325 316 325 330 331 331 334 334 336 335 336 340 338 341 339 341 341 338 338 332 326 327 327 328
282 280 282 282 295 284 300 290 301 296 303 307 306 309 303 317 314 322 322 312 316 328 300 323 328 329 329 336 333 334 332 335 335 337 339 340 339 340 337 335 336 331 322 322 323
273 284 291 278 281 285 301 293 296 295 302 304 310 293 310 300 315 318 315 312 323 313 324 324 325 329 326 333 334 329 329 327 332 334 335 333 336 336 334 331 331 325 323 321 319
285 285 276 292 289 287 291 294 295 299 305 305 307 308 302 308 310 314 317 318 317 321 321 322 325 327 332 332 331 324 328 326 330 330 332 334 333 333 332 330 328 328 319 315 316